User: anonymous
Location: Pine Mountain Observatory
(43.7910°N, 120.9377°W)
Time: 02:50:05
(UTC-07:00)
Language:

Cosmos 1867 - Orbit

View from above orbital plane
View from above orbital plane
View from above satellite
View from above satellite

Ground track
Ground track

The orbit data is extracted from the following two-line orbital elements,

1 18187U 87060A   14233.38794732 -.00000087  00000-0  49350-5 0  1323
2 18187 065.0097 233.4927 0014860 262.1557 097.7840 14.31023859416496
Epoch (UTC): 21 August 2014 09:18:38
Eccentricity: 0.0014860
inclination: 65.0097°
perigee height: 777 km
apogee height: 799 km
right ascension of ascending node: 233.4927°
argument of perigee: 262.1557°
revolutions per day: 14.31023859
mean anomaly at epoch: 97.7840°
orbit number at epoch: 41649

The dashed part of the orbit path shows where the satellite is in the earth's shadow,  

DLR